Time,TemperatureF,DewpointF,PressureIn,WindDirection,WindDirectionDegrees,WindSpeedMPH,WindSpeedGustMPH,Humidity,HourlyPrecipIn,Conditions,Clouds,dailyrainin,SoftwareType,DateUTC
2013-01-25 00:01:00,40.0,40.0,30.01,WSW,242,2.0,-999.0,99,-99.99,,,-99.99,,2013-01-25 08:01:00,
2013-01-25 00:11:00,40.0,40.0,30.00,SSW,208,3.0,-999.0,99,-99.99,,,-99.99,,2013-01-25 08:11:00,
2013-01-25 00:21:00,40.0,40.0,30.00,SSW,208,3.0,-999.0,99,-99.99,,,-99.99,,2013-01-25 08:21:00,
2013-01-25 00:32:00,40.0,40.0,30.00,SW,229,3.0,-999.0,99,-99.99,,,-99.99,,2013-01-25 08:32:00,
2013-01-25 00:41:00,40.0,40.0,30.00,SW,229,3.0,-999.0,99,-99.99,,,-99.99,,2013-01-25 08:41:00,
2013-01-25 00:51:00,40.0,40.0,29.99,SW,231,6.0,-999.0,99,-99.99,,,-99.99,,2013-01-25 08:51:00,
2013-01-25 01:01:00,41.0,41.0,29.99,SW,225,7.0,-999.0,99,-99.99,,,-99.99,,2013-01-25 09:01:00,
2013-01-25 01:11:00,41.0,41.0,29.99,SW,225,7.0,-999.0,99,-99.99,,,-99.99,,2013-01-25 09:11:00,
2013-01-25 01:21:00,41.0,41.0,29.99,SW,215,8.0,-999.0,99,-99.99,,,-99.99,,2013-01-25 09:21:00,
2013-01-25 01:31:00,41.0,41.0,29.99,SW,227,8.0,-999.0,99,-99.99,,,-99.99,,2013-01-25 09:31:00,
2013-01-25 01:41:00,41.0,41.0,29.99,SW,227,8.0,-999.0,99,-99.99,,,-99.99,,2013-01-25 09:41:00,
2013-01-25 01:51:00,42.0,42.0,29.99,SW,226,9.0,-999.0,99,-99.99,,,-99.99,,2013-01-25 09:51:00,
2013-01-25 02:01:00,42.0,42.0,29.98,WSW,254,7.0,-999.0,99,-99.99,,,-99.99,,2013-01-25 10:01:00,
2013-01-25 02:11:00,42.0,42.0,29.98,WSW,254,7.0,-999.0,99,-99.99,,,-99.99,,2013-01-25 10:11:00,
2013-01-25 02:21:00,42.0,42.0,29.98,SW,227,8.0,-999.0,99,-99.99,,,-99.99,,2013-01-25 10:21:00,
2013-01-25 02:31:00,42.0,42.0,29.99,SW,224,8.0,-999.0,99,-99.99,,,-99.99,,2013-01-25 10:31:00,
2013-01-25 02:41:00,42.0,42.0,29.99,SW,224,8.0,-999.0,99,-99.99,,,-99.99,,2013-01-25 10:41:00,
2013-01-25 02:51:00,42.0,41.0,29.99,SW,232,9.0,-999.0,98,-99.99,,,-99.99,,2013-01-25 10:51:00,
2013-01-25 03:02:00,42.0,41.0,29.99,WSW,243,8.0,-999.0,98,-99.99,,,-99.99,,2013-01-25 11:02:00,
2013-01-25 03:11:00,42.0,41.0,29.99,WSW,243,8.0,-999.0,98,-99.99,,,-99.99,,2013-01-25 11:11:00,
2013-01-25 03:22:00,42.0,41.0,29.99,SW,227,9.0,-999.0,98,-99.99,,,-99.99,,2013-01-25 11:22:00,
2013-01-25 03:32:00,42.0,41.0,29.98,SW,233,9.0,-999.0,98,-99.99,,,-99.99,,2013-01-25 11:32:00,
2013-01-25 03:41:00,42.0,41.0,29.98,SW,233,9.0,-999.0,98,-99.99,,,-99.99,,2013-01-25 11:41:00,
2013-01-25 03:52:00,42.0,41.0,29.99,SSW,213,10.0,-999.0,98,-99.99,,,-99.99,,2013-01-25 11:52:00,
2013-01-25 04:02:00,42.0,41.0,29.98,SW,222,9.0,-999.0,98,-99.99,,,-99.99,,2013-01-25 12:02:00,
2013-01-25 04:11:00,42.0,41.0,29.98,SW,222,9.0,-999.0,98,-99.99,,,-99.99,,2013-01-25 12:11:00,
2013-01-25 04:21:00,42.0,41.0,29.98,South,171,9.0,-999.0,98,-99.99,,,-99.99,,2013-01-25 12:21:00,
2013-01-25 04:32:00,42.0,41.0,29.98,South,171,9.0,-999.0,98,-99.99,,,-99.99,,2013-01-25 12:32:00,
2013-01-25 04:41:00,42.0,41.0,29.98,South,171,9.0,-999.0,98,-99.99,,,-99.99,,2013-01-25 12:41:00,
2013-01-25 04:52:00,42.0,41.0,29.98,SW,232,10.0,-999.0,98,-99.99,,,-99.99,,2013-01-25 12:52:00,
2013-01-25 05:02:00,42.0,42.0,29.98,SW,235,9.0,-999.0,99,-99.99,,,-99.99,,2013-01-25 13:02:00,
2013-01-25 05:11:00,42.0,42.0,29.98,SW,235,9.0,-999.0,99,-99.99,,,-99.99,,2013-01-25 13:11:00,
2013-01-25 05:22:00,42.0,42.0,29.98,SSW,206,8.0,-999.0,99,-99.99,,,-99.99,,2013-01-25 13:22:00,
2013-01-25 05:32:00,42.0,42.0,29.98,SW,229,8.0,-999.0,99,-99.99,,,-99.99,,2013-01-25 13:32:00,
2013-01-25 05:42:00,42.0,42.0,29.98,SW,229,8.0,-999.0,99,-99.99,,,-99.99,,2013-01-25 13:42:00,
2013-01-25 05:52:00,42.0,42.0,29.98,SSW,209,7.0,-999.0,99,-99.99,,,-99.99,,2013-01-25 13:52:00,
2013-01-25 06:02:00,42.0,42.0,29.98,SSW,213,7.0,-999.0,99,-99.99,,,-99.99,,2013-01-25 14:02:00,
2013-01-25 06:11:00,42.0,42.0,29.98,SSW,213,7.0,-999.0,99,-99.99,,,-99.99,,2013-01-25 14:11:00,
2013-01-25 06:22:00,42.0,42.0,29.98,SSW,203,7.0,-999.0,99,-99.99,,,-99.99,,2013-01-25 14:22:00,
2013-01-25 06:32:00,42.0,42.0,29.98,SSW,209,7.0,-999.0,99,-99.99,,,-99.99,,2013-01-25 14:32:00,
2013-01-25 06:41:00,42.0,42.0,29.98,SSW,209,7.0,-999.0,99,-99.99,,,-99.99,,2013-01-25 14:41:00,
2013-01-25 06:52:00,42.0,42.0,29.98,SSW,202,7.0,-999.0,99,-99.99,,,-99.99,,2013-01-25 14:52:00,
2013-01-25 07:02:00,42.0,42.0,29.98,SW,232,6.0,-999.0,99,-99.99,,,-99.99,,2013-01-25 15:02:00,
2013-01-25 07:11:00,42.0,42.0,29.98,SW,232,6.0,-999.0,99,-99.99,,,-99.99,,2013-01-25 15:11:00,
2013-01-25 07:21:00,43.0,43.0,29.98,SW,236,9.0,-999.0,99,-99.99,,,-99.99,,2013-01-25 15:21:00,
2013-01-25 07:32:00,43.0,43.0,29.98,SW,222,8.0,-999.0,99,-99.99,,,-99.99,,2013-01-25 15:32:00,
2013-01-25 07:42:00,43.0,43.0,29.98,SW,222,8.0,-999.0,99,-99.99,,,-99.99,,2013-01-25 15:42:00,
2013-01-25 07:52:00,43.0,42.0,29.98,WSW,250,8.0,-999.0,98,-99.99,,,-99.99,,2013-01-25 15:52:00,
2013-01-25 08:02:00,43.0,43.0,29.98,SW,222,8.0,-999.0,99,-99.99,,,-99.99,,2013-01-25 16:02:00,
2013-01-25 08:11:00,43.0,43.0,29.98,SW,222,8.0,-999.0,99,-99.99,,,-99.99,,2013-01-25 16:11:00,
2013-01-25 08:22:00,43.0,42.0,29.98,SW,217,7.0,-999.0,98,-99.99,,,-99.99,,2013-01-25 16:22:00,
2013-01-25 08:32:00,43.0,42.0,29.98,WSW,238,7.0,-999.0,98,-99.99,,,-99.99,,2013-01-25 16:32:00,
2013-01-25 08:42:00,43.0,42.0,29.98,WSW,238,7.0,-999.0,98,-99.99,,,-99.99,,2013-01-25 16:42:00,
2013-01-25 08:52:00,43.0,42.0,29.99,SW,234,6.0,-999.0,98,-99.99,,,-99.99,,2013-01-25 16:52:00,
2013-01-25 09:02:00,43.0,42.0,29.99,SW,234,6.0,-999.0,98,-99.99,,,-99.99,,2013-01-25 17:02:00,
2013-01-25 09:11:00,43.0,42.0,29.99,SW,234,6.0,-999.0,98,-99.99,,,-99.99,,2013-01-25 17:11:00,
2013-01-25 09:22:00,43.0,42.0,29.99,SW,232,2.0,-999.0,98,-99.99,,,-99.99,,2013-01-25 17:22:00,
2013-01-25 09:32:00,43.0,42.0,29.99,WSW,240,3.0,-999.0,98,-99.99,,,-99.99,,2013-01-25 17:32:00,
2013-01-25 09:42:00,43.0,42.0,29.99,WSW,240,3.0,-999.0,98,-99.99,,,-99.99,,2013-01-25 17:42:00,
2013-01-25 09:52:00,43.0,42.0,29.99,SW,219,3.0,-999.0,98,-99.99,,,-99.99,,2013-01-25 17:52:00,
2013-01-25 10:02:00,43.0,42.0,30.00,SW,236,1.0,-999.0,98,-99.99,,,-99.99,,2013-01-25 18:02:00,
2013-01-25 10:11:00,43.0,42.0,30.00,SW,236,1.0,-999.0,98,-99.99,,,-99.99,,2013-01-25 18:11:00,
2013-01-25 10:22:00,43.0,42.0,30.00,SW,236,2.0,-999.0,98,-99.99,,,-99.99,,2013-01-25 18:22:00,
2013-01-25 10:32:00,44.0,43.0,30.00,WSW,252,0.0,-999.0,98,-99.99,,,-99.99,,2013-01-25 18:32:00,
2013-01-25 10:42:00,44.0,43.0,30.00,WSW,252,0.0,-999.0,98,-99.99,,,-99.99,,2013-01-25 18:42:00,
2013-01-25 10:52:00,44.0,43.0,30.00,WSW,252,0.0,-999.0,98,-99.99,,,-99.99,,2013-01-25 18:52:00,
2013-01-25 11:02:00,44.0,43.0,30.00,WSW,252,0.0,-999.0,98,-99.99,,,-99.99,,2013-01-25 19:02:00,
2013-01-25 11:11:00,44.0,43.0,30.00,WSW,252,0.0,-999.0,98,-99.99,,,-99.99,,2013-01-25 19:11:00,
2013-01-25 11:21:00,45.0,44.0,29.99,WSW,252,0.0,-999.0,98,-99.99,,,-99.99,,2013-01-25 19:21:00,
2013-01-25 11:32:00,45.0,44.0,29.99,WSW,252,0.0,-999.0,98,-99.99,,,-99.99,,2013-01-25 19:32:00,
2013-01-25 11:41:00,45.0,44.0,29.99,WSW,252,0.0,-999.0,98,-99.99,,,-99.99,,2013-01-25 19:41:00,
2013-01-25 11:52:00,46.0,45.0,29.98,SSW,198,2.0,-999.0,97,-99.99,,,-99.99,,2013-01-25 19:52:00,
2013-01-25 12:02:00,46.0,45.0,29.98,SSW,213,2.0,-999.0,96,-99.99,,,-99.99,,2013-01-25 20:02:00,
2013-01-25 12:11:00,46.0,45.0,29.98,SSW,213,2.0,-999.0,96,-99.99,,,-99.99,,2013-01-25 20:11:00,
2013-01-25 12:21:00,46.0,45.0,29.97,SSW,205,3.0,-999.0,95,-99.99,,,-99.99,,2013-01-25 20:21:00,
2013-01-25 12:32:00,46.0,44.0,29.96,South,186,0.0,-999.0,94,-99.99,,,-99.99,,2013-01-25 20:32:00,
2013-01-25 12:41:00,46.0,44.0,29.96,South,186,0.0,-999.0,94,-99.99,,,-99.99,,2013-01-25 20:41:00,
2013-01-25 12:52:00,47.0,45.0,29.96,SSW,213,5.0,-999.0,93,-99.99,,,-99.99,,2013-01-25 20:52:00,
2013-01-25 13:02:00,47.0,45.0,29.95,SW,223,2.0,-999.0,94,-99.99,,,-99.99,,2013-01-25 21:02:00,
2013-01-25 13:11:00,47.0,45.0,29.95,SW,223,2.0,-999.0,94,-99.99,,,-99.99,,2013-01-25 21:11:00,
2013-01-25 13:22:00,47.0,45.0,29.95,SW,219,4.0,-999.0,93,-99.99,,,-99.99,,2013-01-25 21:22:00,
2013-01-25 13:32:00,48.0,45.0,29.94,South,186,3.0,-999.0,90,-99.99,,,-99.99,,2013-01-25 21:32:00,
2013-01-25 13:42:00,48.0,45.0,29.94,South,186,3.0,-999.0,90,-99.99,,,-99.99,,2013-01-25 21:42:00,
2013-01-25 13:51:00,48.0,44.0,29.93,SW,236,4.0,-999.0,87,-99.99,,,-99.99,,2013-01-25 21:51:00,
2013-01-25 14:02:00,48.0,44.0,29.93,SSW,204,5.0,-999.0,87,-99.99,,,-99.99,,2013-01-25 22:02:00,
2013-01-25 14:11:00,48.0,44.0,29.93,SSW,204,5.0,-999.0,87,-99.99,,,-99.99,,2013-01-25 22:11:00,
2013-01-25 14:21:00,49.0,44.0,29.93,SW,230,6.0,-999.0,82,-99.99,,,-99.99,,2013-01-25 22:21:00,
2013-01-25 14:32:00,49.0,43.0,29.92,SSW,205,5.0,-999.0,81,-99.99,,,-99.99,,2013-01-25 22:32:00,
2013-01-25 14:41:00,49.0,43.0,29.92,SSW,205,5.0,-999.0,81,-99.99,,,-99.99,,2013-01-25 22:41:00,
2013-01-25 14:51:00,49.0,44.0,29.92,WSW,244,5.0,-999.0,82,-99.99,,,-99.99,,2013-01-25 22:51:00,
2013-01-25 15:02:00,49.0,43.0,29.91,SSW,203,6.0,-999.0,80,-99.99,,,-99.99,,2013-01-25 23:02:00,
2013-01-25 15:11:00,49.0,43.0,29.91,SSW,203,6.0,-999.0,80,-99.99,,,-99.99,,2013-01-25 23:11:00,
2013-01-25 15:21:00,49.0,44.0,29.91,SSW,213,5.0,-999.0,82,-99.99,,,-99.99,,2013-01-25 23:21:00,
2013-01-25 15:32:00,49.0,44.0,29.91,SW,218,5.0,-999.0,82,-99.99,,,-99.99,,2013-01-25 23:32:00,
2013-01-25 15:41:00,49.0,44.0,29.91,SW,218,5.0,-999.0,82,-99.99,,,-99.99,,2013-01-25 23:41:00,
2013-01-25 15:52:00,49.0,43.0,29.91,WSW,245,6.0,-999.0,80,-99.99,,,-99.99,,2013-01-25 23:52:00,
2013-01-25 16:01:00,49.0,43.0,29.91,SW,215,5.0,-999.0,81,-99.99,,,-99.99,,2013-01-26 00:01:00,
2013-01-25 16:11:00,49.0,43.0,29.91,SW,215,5.0,-999.0,81,-99.99,,,-99.99,,2013-01-26 00:11:00,
2013-01-25 16:22:00,48.0,42.0,29.91,SW,235,2.0,-999.0,80,-99.99,,,-99.99,,2013-01-26 00:22:00,
2013-01-25 16:32:00,48.0,42.0,29.91,SW,225,6.0,-999.0,80,-99.99,,,-99.99,,2013-01-26 00:32:00,
2013-01-25 16:41:00,48.0,42.0,29.91,SW,225,6.0,-999.0,80,-99.99,,,-99.99,,2013-01-26 00:41:00,
2013-01-25 16:53:00,46.0,41.0,29.90,SSW,196,3.0,-999.0,83,-99.99,,,-99.99,,2013-01-26 00:53:00,
2013-01-25 17:01:00,46.0,41.0,29.90,SW,229,4.0,-999.0,84,-99.99,,,-99.99,,2013-01-26 01:01:00,
2013-01-25 17:11:00,46.0,41.0,29.90,SW,229,4.0,-999.0,84,-99.99,,,-99.99,,2013-01-26 01:11:00,
2013-01-25 17:22:00,46.0,41.0,29.90,SW,215,5.0,-999.0,84,-99.99,,,-99.99,,2013-01-26 01:22:00,
2013-01-25 17:31:00,45.0,41.0,29.90,SW,221,4.0,-999.0,85,-99.99,,,-99.99,,2013-01-26 01:31:00,
2013-01-25 17:41:00,45.0,41.0,29.90,SW,221,4.0,-999.0,85,-99.99,,,-99.99,,2013-01-26 01:41:00,
2013-01-25 17:52:00,45.0,41.0,29.90,SW,230,3.0,-999.0,85,-99.99,,,-99.99,,2013-01-26 01:52:00,
2013-01-25 18:01:00,44.0,40.0,29.90,SW,229,3.0,-999.0,85,-99.99,,,-99.99,,2013-01-26 02:01:00,
2013-01-25 18:11:00,44.0,40.0,29.90,SW,229,3.0,-999.0,85,-99.99,,,-99.99,,2013-01-26 02:11:00,
2013-01-25 18:22:00,44.0,40.0,29.90,SW,229,3.0,-999.0,85,-99.99,,,-99.99,,2013-01-26 02:22:00,
2013-01-25 18:32:00,43.0,39.0,29.89,WSW,238,6.0,-999.0,87,-99.99,,,-99.99,,2013-01-26 02:32:00,
2013-01-25 18:42:00,43.0,39.0,29.89,WSW,238,6.0,-999.0,87,-99.99,,,-99.99,,2013-01-26 02:42:00,
2013-01-25 18:52:00,43.0,40.0,29.89,SW,229,10.0,-999.0,88,-99.99,,,-99.99,,2013-01-26 02:52:00,
2013-01-25 19:01:00,42.0,39.0,29.89,WSW,254,7.0,-999.0,88,-99.99,,,-99.99,,2013-01-26 03:01:00,
2013-01-25 19:11:00,42.0,39.0,29.89,WSW,254,7.0,-999.0,88,-99.99,,,-99.99,,2013-01-26 03:11:00,
2013-01-25 19:21:00,41.0,38.0,29.88,WSW,252,7.0,-999.0,90,-99.99,,,-99.99,,2013-01-26 03:21:00,
2013-01-25 19:31:00,41.0,39.0,29.89,SW,227,7.0,-999.0,91,-99.99,,,-99.99,,2013-01-26 03:31:00,
2013-01-25 19:42:00,41.0,39.0,29.89,SW,227,7.0,-999.0,91,-99.99,,,-99.99,,2013-01-26 03:42:00,
2013-01-25 19:52:00,41.0,39.0,29.89,SW,223,4.0,-999.0,92,-99.99,,,-99.99,,2013-01-26 03:52:00,
2013-01-25 20:01:00,40.0,38.0,29.88,SW,214,3.0,-999.0,92,-99.99,,,-99.99,,2013-01-26 04:01:00,
2013-01-25 20:12:00,40.0,38.0,29.88,SW,214,3.0,-999.0,92,-99.99,,,-99.99,,2013-01-26 04:12:00,
2013-01-25 20:21:00,40.0,38.0,29.88,SW,217,6.0,-999.0,92,-99.99,,,-99.99,,2013-01-26 04:21:00,
2013-01-25 20:32:00,40.0,38.0,29.88,SW,234,7.0,-999.0,93,-99.99,,,-99.99,,2013-01-26 04:32:00,
2013-01-25 20:42:00,40.0,38.0,29.88,SW,234,7.0,-999.0,93,-99.99,,,-99.99,,2013-01-26 04:42:00,
2013-01-25 20:52:00,40.0,38.0,29.88,SW,218,7.0,-999.0,93,-99.99,,,-99.99,,2013-01-26 04:52:00,
2013-01-25 21:02:00,40.0,38.0,29.88,SW,235,8.0,-999.0,93,-99.99,,,-99.99,,2013-01-26 05:02:00,
2013-01-25 21:12:00,40.0,38.0,29.88,SW,235,8.0,-999.0,93,-99.99,,,-99.99,,2013-01-26 05:12:00,
2013-01-25 21:22:00,40.0,38.0,29.88,SW,235,9.0,-999.0,94,-99.99,,,-99.99,,2013-01-26 05:22:00,
2013-01-25 21:32:00,39.0,37.0,29.87,SW,215,9.0,-999.0,94,-99.99,,,-99.99,,2013-01-26 05:32:00,
2013-01-25 21:41:00,39.0,37.0,29.87,SW,215,9.0,-999.0,94,-99.99,,,-99.99,,2013-01-26 05:41:00,
2013-01-25 21:52:00,39.0,37.0,29.88,SW,224,9.0,-999.0,94,-99.99,,,-99.99,,2013-01-26 05:52:00,
2013-01-25 22:02:00,39.0,38.0,29.88,SW,232,8.0,-999.0,95,-99.99,,,-99.99,,2013-01-26 06:02:00,
2013-01-25 22:11:00,39.0,38.0,29.88,SW,232,8.0,-999.0,95,-99.99,,,-99.99,,2013-01-26 06:11:00,
2013-01-25 22:21:00,39.0,38.0,29.88,SW,234,9.0,-999.0,95,-99.99,,,-99.99,,2013-01-26 06:21:00,
2013-01-25 22:31:00,39.0,38.0,29.87,SW,232,9.0,-999.0,95,-99.99,,,-99.99,,2013-01-26 06:31:00,
2013-01-25 22:41:00,39.0,38.0,29.87,SW,232,9.0,-999.0,95,-99.99,,,-99.99,,2013-01-26 06:41:00,
2013-01-25 22:52:00,38.0,37.0,29.87,WSW,239,8.0,-999.0,95,-99.99,,,-99.99,,2013-01-26 06:52:00,
2013-01-25 23:01:00,38.0,37.0,29.87,WSW,246,8.0,-999.0,96,-99.99,,,-99.99,,2013-01-26 07:01:00,
2013-01-25 23:11:00,38.0,37.0,29.87,WSW,246,8.0,-999.0,96,-99.99,,,-99.99,,2013-01-26 07:11:00,
2013-01-25 23:21:00,38.0,37.0,29.87,WSW,246,8.0,-999.0,96,-99.99,,,-99.99,,2013-01-26 07:21:00,
2013-01-25 23:32:00,38.0,37.0,29.87,WSW,238,10.0,-999.0,95,-99.99,,,-99.99,,2013-01-26 07:32:00,
2013-01-25 23:41:00,38.0,37.0,29.87,WSW,238,10.0,-999.0,95,-99.99,,,-99.99,,2013-01-26 07:41:00,
2013-01-25 23:51:00,38.0,37.0,29.87,WSW,239,9.0,-999.0,95,-99.99,,,-99.99,,2013-01-26 07:51:00,